Regional Weather Roundup
Issued by NWS

Home | Current Version | Previous Version | Text Only | Print | Product List | Glossary Off
Versions: 1 2 3 4 5 6 7 8 9 10 11 12 13 14 15 16 17 18 19 20 21 22 23 24 25 26 27 28 29 30 31 32 33 34 35 36 37 38 39 40 41 42 43 44 45 46 47 48 49 50

000
ASUS43 KLOT 301208
RWRIL

ILLINOIS REGIONAL WEATHER ROUNDUP
NATIONAL WEATHER SERVICE CHICAGO/ROMEOVILLE IL
700 AM CDT THU MAR 30 2017

NOTE: "FAIR" INDICATES FEW OR NO CLOUDS BELOW 12,000 FEET WITH NO
SIGNIFICANT WEATHER AND/OR OBSTRUCTIONS TO VISIBILITY.

* THESE STATIONS ARE NOT UNDER NWS QUALITY CONTROL. THEY ALSO MAY NOT
  REPORT WEATHER SUCH AS PRECIPITATION OR FOG.

ILZ001-002-007-009-015-016-024-301300-
NORTHWEST ILLINOIS

CITY           SKY/WX    TMP DP  RH WIND       PRES   REMARKS
MOLINE         TSTM      45  42  89 E17G24    29.70R VSB 1
6HR MIN TEMP:  43; 6HR MAX TEMP:  45; 6HR PCP:  0.88;

STERLING*      LGT RAIN  45  42  89 E23G35    29.71F
SAVANNA*       CLOUDY    42  40  93 E17G24    29.73S
$$

ILZ003-004-008-010-011-017-018-301300-
NORTH CENTRAL ILLINOIS

CITY           SKY/WX    TMP DP  RH WIND       PRES   REMARKS
ROCKFORD       LGT RAIN  42  38  85 E15       29.80F
6HR MIN TEMP:  41; 6HR MAX TEMP:  43; 6HR PCP:  0.56;

FREEPORT*      CLOUDY    39  38  97 E21       29.78F WCI  29
ROCHELLE*      LGT RAIN  42  41  97 E20G28    29.76F
DE KALB*       LGT RAIN  42  41  97 E18       29.78F
PERU*          LGT RAIN  42  40  93 E17G25    29.75R
$$

ILZ005-006-012>014-019>023-301300-
NORTHEAST ILLINOIS

CITY           SKY/WX    TMP DP  RH WIND       PRES   REMARKS
CHICAGO-OHARE  RAIN      43  39  86 E18G35    29.81F FOG
6HR MIN TEMP:  42; 6HR MAX TEMP:  43; 6HR PCP:  0.80;

CHICAGO-MIDWAY RAIN      42  40  92 E20G29    29.81F FOG
6HR MIN TEMP:  41; 6HR MAX TEMP:  44; 6HR PCP:  1.17;

AURORA         CLOUDY    44  39  82 E20G26    29.78F
6HR MIN TEMP:  43; 6HR MAX TEMP:  45; 6HR PCP:  0.72;

LANSING*       RAIN      42  41  99 E13       29.84F
JOLIET*        RAIN      44  42  94 E14G20    29.78F
WAUKEGAN       LGT RAIN  38  38 100 E16G24    29.84F FOG     WCI  29
6HR MIN TEMP:  38; 6HR MAX TEMP:  40; 6HR PCP:  0.57;

DUPAGE AIRPORT LGT RAIN  42  41  96 E14       29.80S FOG
6HR MIN TEMP:  41; 6HR MAX TEMP:  43; 6HR PCP:  0.86;

KANKAKEE*      CLOUDY    44  42  93 E15G22    29.78F
WHEELING       LGT RAIN  40  40 100 E9G18     29.85F
6HR MIN TEMP:  39; 6HR MAX TEMP:  41; 6HR PCP:  0.74;

MORRIS*        LGT RAIN  43  41  93 E14G21    29.78S
ROMEOVILLE*    LGT RAIN  41  41 100 E17G23    29.78F
NORTHERLY ISL    N/A     40  37  89 E16         N/A
$$

LMZ740>746-301300-
SOUTHERN LAKE MICHIGAN

STATION/POSITION SKY/WX   TEMP    WIND        PRES    VSBY  WAVE
                          AIR SEA DIR/SP/G                  HT/PER
                          (F)     (DEG/KT/KT) (MB)    (MI)  (FT/S)
HARRISON CRIB              40     100/ 27/ 31   N/A
BURNHAM HARBOR             39      80/ 13/ 24   N/A
CALUMET HARBOR             40      90/ 14/ 17 1009.6F
BURNS HARBOR               42     110/ 11/ 18 1011.5R
MICHIGAN CITY              41     100/ 12/ 18   N/A
$$

ILZ025>027-034>036-040-047-049-050-058-095>099-301300-
WEST-CENTRAL ILLINOIS

CITY           SKY/WX    TMP DP  RH WIND       PRES   REMARKS
QUINCY         CLOUDY    51  51 100 E8        29.59F FOG
GALESBURG*     CLOUDY    44  43  95 NE7       29.67R
MACOMB*        CLOUDY    46  45  99 NE10      29.66F FOG
JACKSONVILLE*  RAIN      53  52  97 E8        29.61F
PITTSFIELD*    LGT RAIN  55  54  98 E5        29.62R
$$

ILZ028>032-037-038-041>044-048-051>054-059>061-301300-
CENTRAL ILLINOIS

CITY           SKY/WX    TMP DP  RH WIND       PRES   REMARKS
PONTIAC        CLOUDY    45  44  98 E25G31    29.70F
BLOOMINGTON    CLOUDY    46  45  96 E15       29.70F
DECATUR        CLOUDY    51  49  92 E10       29.68R
PEORIA         CLOUDY    45  45 100 E15       29.67F
6HR MIN TEMP:  45; 6HR MAX TEMP:  47; 6HR PCP:  0.28;

LACON*         LGT RAIN  43  43  99 E13G20    29.70S
LINCOLN*       MOCLDY    51  50  99 E5        29.66S
SPRINGFIELD    CLOUDY    54  53  97 E10       29.64S
6HR MIN TEMP:  53; 6HR MAX TEMP:  55; 6HR PCP:  0.46;

TAYLORVILLE    CLOUDY    54  54 100 E9        29.65F
$$

ILZ033-039-045-046-055>057-062-063-301300-
EAST-CENTRAL ILLINOIS

CITY           SKY/WX    TMP DP  RH WIND       PRES   REMARKS
CHAMPAIGN      CLOUDY    49  46  90 E14       29.71S
RANTOUL*       CLOUDY    47  46  96 E16       29.71F
MATTOON        CLOUDY    55  55 100 SE10      29.68R
PARIS*         CLOUDY    54  51  92 E14       29.72F
$$

ILZ079-100>102-301300-
SOUTHWEST ILLINOIS

CITY           SKY/WX    TMP DP  RH WIND       PRES   REMARKS
ALTON          LGT RAIN  55  55 100 NE6       29.61F
BELLEVILLE     CLOUDY    59  59 100 E7        29.59F
CAHOKIA*       LGT RAIN  60  57  89 CALM      29.59F
SPARTA*        CLOUDY    64  59  82 S9G16     29.63S
$$

ILZ064>066-069>071-074>076-080>082-084>086-088>090-092>094-301300-
SOUTH-CENTRAL ILLINOIS

CITY           SKY/WX    TMP DP  RH WIND       PRES   REMARKS
CARBONDALE     LGT RAIN  62  59  90 S22G37    29.64F
6HR MIN TEMP:  61; 6HR MAX TEMP:  68; 6HR PCP:  0.61;

CAIRO*         CLOUDY    65  58  76 S8G18     29.65F
EFFINGHAM*     CLOUDY    57  56  98 E9        29.70R
MARION         LGT RAIN  68  61  77 S17       29.67S
MT. VERNON     CLOUDY    61  58  90 SE6       29.66F
CENTRALIA*     CLOUDY    60  59  96 SE9       29.65S
SALEM*         HVY RAIN  60  57  89 E7        29.66S
METROPOLIS*    CLOUDY    68  57  67 S5        29.67F
$$

ILZ067-068-072-073-078-083-087-091-301300-
SOUTHEAST ILLINOIS

CITY           SKY/WX    TMP DP  RH WIND       PRES   REMARKS
LAWRENCEVILLE  CLOUDY    56  53  90 NE7       29.71F
FLORA*         CLOUDY    58  56  91 E5        29.69S
FAIRFIELD*     CLOUDY    62  58  86 CALM      29.67S
HARRISBURG*    CLOUDY    66  58  73 S12       29.68S
ROBINSON*      CLOUDY    53  52  95 E5        29.73S
CARMI*         CLOUDY    60  57  92 SE9       29.69R
$$

ABBREVIATIONS USED IN REMARKS
   TC - TEMPERATURE IN CELSIUS
  WCI - WIND CHILL INDEX
   HX - HEAT INDEX
  VSB - VISIBILITY
$$




USA.gov is the U.S. government's official web portal to all federal, state and local government web resources and services.